TimeCST,TemperatureF,Dew PointF,Humidity,Sea Level PressureIn,VisibilityMPH,Wind Direction,Wind SpeedMPH,Gust SpeedMPH,PrecipitationIn,Events,Conditions,WindDirDegrees,DateUTC
12:15 AM,33.8,12.2,41,29.85,10.0,NNW,8.1,-,N/A,,Clear,340,2014-01-20 06:15:00
12:35 AM,29.7,11.5,47,29.86,10.0,NNW,6.9,-,N/A,,Clear,330,2014-01-20 06:35:00
12:55 AM,31.8,13.1,46,29.86,10.0,WNW,3.5,-,N/A,,Clear,290,2014-01-20 06:55:00
1:15 AM,29.7,11.5,47,29.86,10.0,NW,6.9,-,N/A,,Clear,320,2014-01-20 07:15:00
1:35 AM,35.1,15.1,44,29.86,10.0,North,8.1,-,N/A,,Clear,350,2014-01-20 07:35:00
1:55 AM,29.1,12.7,50,29.87,10.0,NW,6.9,-,N/A,,Clear,320,2014-01-20 07:55:00
2:15 AM,27.5,12.4,53,29.87,10.0,NNW,8.1,-,N/A,,Clear,330,2014-01-20 08:15:00
2:35 AM,27.3,12.4,53,29.88,10.0,NNW,6.9,-,N/A,,Clear,330,2014-01-20 08:35:00
2:55 AM,27.7,13.1,54,29.89,10.0,WNW,4.6,-,N/A,,Clear,290,2014-01-20 08:55:00
3:15 AM,29.1,13.8,53,29.90,10.0,NW,8.1,-,N/A,,Clear,320,2014-01-20 09:15:00
3:35 AM,27.0,13.6,57,29.90,10.0,NW,8.1,-,N/A,,Clear,320,2014-01-20 09:35:00
3:55 AM,27.3,14.0,57,29.91,10.0,NW,8.1,-,N/A,,Clear,320,2014-01-20 09:55:00
4:15 AM,27.7,14.4,57,29.92,10.0,NNW,9.2,-,N/A,,Clear,330,2014-01-20 10:15:00
4:35 AM,24.1,13.8,65,29.92,10.0,NW,5.8,-,N/A,,Clear,320,2014-01-20 10:35:00
4:55 AM,26.2,15.3,63,29.92,10.0,NW,4.6,-,N/A,,Clear,320,2014-01-20 10:55:00
5:15 AM,25.2,14.5,64,29.95,10.0,WNW,4.6,-,N/A,,Clear,290,2014-01-20 11:15:00
5:35 AM,25.9,14.7,63,29.95,10.0,WNW,5.8,-,N/A,,Clear,300,2014-01-20 11:35:00
5:55 AM,25.0,15.1,66,29.95,10.0,NNW,6.9,-,N/A,,Clear,340,2014-01-20 11:55:00
6:15 AM,25.5,16.0,67,29.96,10.0,NNW,4.6,-,N/A,,Clear,330,2014-01-20 12:15:00
6:35 AM,29.1,18.3,64,29.97,10.0,NNW,9.2,-,N/A,,Clear,330,2014-01-20 12:35:00
6:55 AM,28.0,17.4,64,29.98,10.0,NW,8.1,-,N/A,,Clear,310,2014-01-20 12:55:00
7:15 AM,27.0,16.9,66,29.98,10.0,WNW,8.1,-,N/A,,Clear,300,2014-01-20 13:15:00
7:35 AM,27.9,18.1,67,29.99,10.0,WNW,10.4,-,N/A,,Clear,300,2014-01-20 13:35:00
7:55 AM,29.3,18.5,64,30.00,10.0,WNW,12.7,-,N/A,,Clear,300,2014-01-20 13:55:00
8:15 AM,29.3,19.0,66,30.01,10.0,WNW,9.2,-,N/A,,Clear,300,2014-01-20 14:15:00
8:35 AM,32.0,20.7,63,30.03,10.0,WNW,9.2,-,N/A,,Clear,300,2014-01-20 14:35:00
8:55 AM,33.8,21.7,61,30.05,10.0,NW,12.7,-,N/A,,Scattered Clouds,310,2014-01-20 14:55:00
9:15 AM,34.5,22.1,61,30.05,10.0,NW,12.7,-,N/A,,Scattered Clouds,310,2014-01-20 15:15:00
9:35 AM,35.8,22.8,59,30.07,10.0,NW,15.0,20.7,N/A,,Scattered Clouds,320,2014-01-20 15:35:00
9:55 AM,39.6,23.5,53,30.08,10.0,NW,17.3,23.0,N/A,,Clear,320,2014-01-20 15:55:00
10:15 AM,42.6,23.2,46,30.08,10.0,NW,23.0,29.9,N/A,,Clear,320,2014-01-20 16:15:00
10:35 AM,44.8,21.7,40,30.09,10.0,NNW,28.8,35.7,N/A,,Clear,330,2014-01-20 16:35:00
10:55 AM,45.1,20.5,38,30.10,10.0,NNW,32.2,41.4,N/A,,Clear,340,2014-01-20 16:55:00
11:15 AM,45.7,20.5,37,30.11,10.0,NW,35.7,41.4,N/A,,Clear,320,2014-01-20 17:15:00
11:35 AM,44.4,20.3,38,30.10,10.0,NNW,28.8,40.3,N/A,,Clear,330,2014-01-20 17:35:00
11:55 AM,45.7,20.5,37,30.09,10.0,NNW,38.0,51.8,N/A,,Clear,330,2014-01-20 17:55:00
12:15 PM,47.7,19.6,33,30.08,10.0,NNW,32.2,42.6,N/A,,Clear,330,2014-01-20 18:15:00
12:35 PM,47.7,19.6,33,30.08,10.0,NW,34.5,43.7,N/A,,Clear,320,2014-01-20 18:35:00
12:55 PM,47.8,19.6,33,30.08,10.0,NNW,34.5,46.0,N/A,,Scattered Clouds,330,2014-01-20 18:55:00
1:15 PM,47.7,19.4,33,30.08,10.0,NNW,36.8,44.9,N/A,,Scattered Clouds,340,2014-01-20 19:15:00
1:35 PM,47.1,19.4,33,30.09,10.0,NNW,34.5,41.4,N/A,,Mostly Cloudy,340,2014-01-20 19:35:00
1:55 PM,45.5,18.5,34,30.10,10.0,NW,38.0,52.9,N/A,,Overcast,320,2014-01-20 19:55:00
2:15 PM,45.3,18.0,34,30.10,10.0,NW,39.1,48.3,N/A,,Overcast,320,2014-01-20 20:15:00
2:35 PM,45.7,18.1,33,30.09,10.0,NW,35.7,43.7,N/A,,Overcast,320,2014-01-20 20:35:00
2:55 PM,45.7,17.6,33,30.09,10.0,NW,38.0,49.5,N/A,,Overcast,310,2014-01-20 20:55:00
3:15 PM,44.8,23.0,42,30.12,10.0,NNW,36.8,46.0,N/A,,Overcast,340,2014-01-20 21:15:00
3:35 PM,41.9,24.6,50,30.14,10.0,NNW,33.4,39.1,N/A,,Mostly Cloudy,340,2014-01-20 21:35:00
3:55 PM,40.1,20.5,45,30.17,10.0,NNW,38.0,46.0,N/A,,Mostly Cloudy,340,2014-01-20 21:55:00
4:15 PM,39.2,15.4,38,30.17,10.0,NW,38.0,52.9,N/A,,Mostly Cloudy,320,2014-01-20 22:15:00
4:35 PM,36.7,9.7,33,30.19,10.0,NNW,40.3,54.1,N/A,,Scattered Clouds,330,2014-01-20 22:35:00
4:55 PM,34.9,9.5,35,30.21,10.0,NNW,40.3,49.5,N/A,,Clear,330,2014-01-20 22:55:00
5:15 PM,32.9,10.6,40,30.21,10.0,NNW,34.5,50.6,N/A,,Clear,340,2014-01-20 23:15:00
5:35 PM,31.1,11.3,44,30.23,10.0,NNW,31.1,42.6,N/A,,Clear,340,2014-01-20 23:35:00
5:55 PM,28.0,11.1,49,30.26,10.0,NNW,33.4,44.9,N/A,,Clear,340,2014-01-20 23:55:00
6:15 PM,25.5,10.4,53,30.27,10.0,North,27.6,39.1,N/A,,Clear,350,2014-01-21 00:15:00
6:35 PM,23.2,9.0,55,30.30,10.0,NNW,27.6,39.1,N/A,,Clear,340,2014-01-21 00:35:00
6:55 PM,21.2,8.2,57,30.32,10.0,North,28.8,34.5,N/A,,Clear,360,2014-01-21 00:55:00
7:15 PM,18.7,8.4,64,30.35,10.0,North,25.3,33.4,N/A,,Clear,350,2014-01-21 01:15:00
7:35 PM,16.9,6.6,64,30.37,10.0,North,25.3,31.1,N/A,,Clear,360,2014-01-21 01:35:00
7:55 PM,15.6,3.9,60,30.37,10.0,North,32.2,39.1,N/A,,Clear,360,2014-01-21 01:55:00
8:15 PM,14.9,3.2,60,30.38,10.0,North,21.9,31.1,N/A,,Clear,350,2014-01-21 02:15:00
8:35 PM,14.4,3.0,61,30.39,10.0,North,27.6,35.7,N/A,,Clear,350,2014-01-21 02:35:00
8:55 PM,13.5,1.4,59,30.40,10.0,North,31.1,38.0,N/A,,Clear,350,2014-01-21 02:55:00
9:15 PM,12.6,1.0,60,30.41,10.0,North,21.9,28.8,N/A,,Clear,360,2014-01-21 03:15:00
9:35 PM,12.0,1.4,62,30.42,10.0,North,17.3,28.8,N/A,,Clear,360,2014-01-21 03:35:00
9:55 PM,10.8,0.3,63,30.42,10.0,North,21.9,28.8,N/A,,Clear,360,2014-01-21 03:55:00
10:15 PM,9.9,-1.5,60,30.44,10.0,North,21.9,28.8,N/A,,Clear,360,2014-01-21 04:15:00
10:35 PM,9.1,-2.2,60,30.45,10.0,North,21.9,26.5,N/A,,Clear,350,2014-01-21 04:35:00
10:55 PM,8.4,-2.4,62,30.46,10.0,North,18.4,24.2,N/A,,Clear,350,2014-01-21 04:55:00
11:15 PM,7.7,-2.6,63,30.46,10.0,North,11.5,-,N/A,,Clear,350,2014-01-21 05:15:00
11:35 PM,7.3,-3.6,61,30.47,10.0,North,19.6,24.2,N/A,,Clear,350,2014-01-21 05:35:00
11:55 PM,6.8,-4.2,61,30.47,10.0,North,18.4,23.0,N/A,,Clear,350,2014-01-21 05:55:00